Location: Crescent
(42.8242°N, 73.7329°W)
Time: 00:35:24
(UTC+00:00)

Explorer 7 - Pass Details

Date: 22 February 2026
Orbit: 430 x 541 km, 50.2° (Epoch: 10 March)

Event Time Altitude Azimuth Distance (km) Brightness Sun altitude
Rises 17:48:12 0° 225° (SW) 2,387 10.8 36.4°
Reaches altitude 10° 17:50:19 10° 220° (SW) 1,529 10.1 36.3°
Maximum altitude 17:53:39 50° 144° (SE) 564 7.9 36.2°
Drops below altitude 10° 17:57:05 10° 67° (ENE) 1,574 8.9 36.0°
Sets 17:59:18 0° 63° (ENE) 2,466 9.8 35.9°
